Location: A�n Tadlesse
(35.0351°N, 0.5353°E)
Time: 16:52:51
(UTC+00:00)

H-2A R/B - Pass Details

Date: 21 October 2019
Orbit: 503 x 540 km, 97.3° (Epoch: 11 November)

Event Time Altitude Azimuth Distance (km) Brightness Sun altitude
Rises 17:49:29 0° 176° (S) 2,663 6.4 -7.6°
Reaches altitude 10° 17:51:36 10° 180° (S) 1,782 5.5 -8.0°
Maximum altitude 17:55:24 58° 260° (W) 628 3.5 -8.8°
Drops below altitude 10° 17:59:15 10° 340° (NNW) 1,806 5.6 -9.6°
Sets 18:01:25 0° 345° (NNW) 2,703 6.5 -10.0°
